Temperature
18 18 17 16 16 15 14 13 13 12 12 12 12 11 11 11 11 10 10 10 10 10 10 10 10 10 10 11 11 11 11 11 11 11 11 11 11 11 12 12 13 13 13
19 18 17 17 16 15 14 14 13 13 12 12 11 11 11 11 10 10 10 10 10 9 9 10 10 10 10 11 11 11 11 11 11 10 10 10 10 10 11 11 12 12 12
19 19 17 17 16 15 14 14 13 13 12 12 11 11 11 10 10 10 10 10 9 9 10 10 10 10 11 11 11 11 11 11 10 9 10 10 10 10 10 10 11 11 11
19 19 18 17 16 15 14 14 13 13 12 12 11 11 10 10 10 10 10 10 10 10 10 10 10 10 11 11 12 12 12 11 10 9 10 10 10 9 10 10 10 11 11
18 18 18 17 16 15 14 14 13 13 12 11 11 11 10 10 10 10 10 10 10 10 10 10 10 11 11 12 12 12 11 11 10 9 10 10 10 9 9 10 10 10 10
18 18 18 17 16 15 14 14 13 12 12 11 11 10 10 10 10 10 10 10 11 11 11 11 11 11 11 12 12 12 11 11 10 10 10 10 10 9 10 10 10 10 10
18 17 18 17 16 15 14 13 13 12 12 11 11 10 10 10 10 10 10 11 11 11 11 11 11 11 11 11 11 11 11 11 10 10 10 10 10 10 10 10 10 10 10
17 17 17 16 16 15 14 13 12 12 11 11 10 10 10 10 10 10 10 11 11 11 11 11 11 11 11 11 11 11 11 11 10 10 10 10 10 10 10 10 10 11 11
17 16 17 16 15 14 13 13 12 11 11 10 10 10 10 9 9 10 10 10 10 10 11 11 11 11 11 11 11 11 11 11 11 10 10 11 11 10 10 11 11 11 11
17 16 16 16 15 14 13 12 12 11 11 10 10 10 10 9 9 9 9 10 10 10 10 10 11 11 11 11 11 11 11 10 10 10 10 11 11 10 10 11 11 11 11
16 16 15 15 14 13 12 12 11 11 11 10 10 10 9 9 9 9 9 9 9 10 10 10 10 10 10 10 10 10 10 10 10 10 10 10 10 10 10 10 11 11 11
16 15 15 14 14 13 12 12 11 11 10 10 10 10 9 9 9 9 9 9 9 9 9 10 10 10 10 10 10 10 10 10 10 10 10 11 10 10 11 11 11 10 10
16 15 15 14 13 13 12 11 11 11 10 10 10 9 9 9 9 8 8 8 9 9 9 9 9 9 9 9 9 9 10 10 10 10 10 10 10 10 10 11 11 11 10
16 16 15 14 13 12 12 11 11 11 10 10 10 9 9 9 9 9 8 8 8 8 8 8 8 8 8 8 8 9 9 9 10 10 10 10 10 10 10 10 11 11 10
16 15 15 14 13 13 12 11 11 11 11 10 10 9 9 9 9 9 9 8 8 8 8 8 8 8 8 7 7 8 8 9 9 9 10 10 10 10 10 10 10 10 10
15 15 14 14 13 13 12 12 11 11 10 10 10 9 9 9 9 9 8 8 8 8 7 7 7 7 7 7 7 7 8 8 8 9 9 9 10 10 10 10 10 10 10
15 14 14 14 13 13 12 12 11 11 10 10 10 9 9 9 9 9 8 8 8 8 7 7 7 7 7 7 7 7 7 7 8 8 8 8 9 9 10 10 10 10 10
15 14 14 14 13 12 12 11 11 10 10 10 10 9 9 9 9 9 8 8 8 8 8 7 7 7 7 7 7 7 7 7 7 7 8 8 8 9 9 9 10 10 9
14 14 14 14 13 12 12 11 11 10 10 10 10 9 9 9 8 8 8 8 8 8 7 7 7 7 7 7 7 7 7 7 7 7 8 8 8 8 9 9 9 9 9
14 14 14 14 13 12 12 11 11 10 10 10 10 9 9 9 9 8 8 8 8 8 7 7 7 7 7 6 6 6 6 7 7 7 8 8 8 8 8 8 8 8 8
14 14 13 13 13 12 12 11 11 10 10 10 10 9 9 9 9 8 8 8 8 8 7 7 7 6 6 6 5 6 6 7 7 8 8 8 7 7 7 7 7 7 7
13 13 13 13 12 12 12 11 11 10 10 10 9 9 9 9 9 8 8 8 8 7 7 7 7 6 6 6 5 4 4 5 6 6 7 7 7 7 6 6 6 6 6
13 13 13 13 12 12 12 12 11 10 10 9 9 9 9 9 8 8 8 8 8 7 7 7 6 6 6 6 5 4 4 4 4 5 6 6 6 6 6 5 5 5 5
13 13 12 12 12 12 12 11 11 10 9 9 9 8 8 8 8 8 8 7 7 7 7 7 6 6 5 5 5 5 4 4 3 3 3 4 5 5 5 5 5 5 5
12 12 12 12 12 12 11 11 10 10 9 9 8 8 8 7 7 7 7 7 7 7 6 6 6 6 5 5 5 4 4 4 3 2 2 3 4 4 4 4 4 4 4
12 12 12 11 11 11 11 10 10 9 9 8 8 7 7 7 7 6 6 6 6 6 6 6 5 5 5 5 4 4 4 3 3 3 2 2 2 3 3 3 3 3 4
Wind_Speed
10 19 22 20 18 16 14 13 12 11 11 11 12 12 12 12 12 12 12 12 12 12 12 13 13 14 14 15 15 15 15 15 16 16 17 17 17 16 16 16 16 15 16
13 22 23 21 19 17 15 14 13 11 11 11 11 11 11 11 11 11 11 11 11 11 12 12 12 13 13 14 13 13 13 13 13 14 15 15 16 16 16 16 15 14 15
15 22 23 22 20 18 16 14 13 12 11 10 10 10 10 10 10 10 10 10 10 10 11 11 11 12 12 12 12 12 11 11 11 12 14 14 14 14 15 15 15 15 14
17 22 21 22 20 19 17 15 14 13 11 10 10 10 10 9 9 9 9 9 9 9 10 10 10 11 11 11 10 10 10 9 10 12 13 13 12 12 13 13 13 14 13
15 21 22 23 21 19 18 16 15 13 12 11 10 9 9 8 8 8 8 8 8 8 8 9 9 9 9 9 9 9 8 8 9 10 11 12 11 11 11 11 11 12 12
12 20 23 24 21 20 18 17 15 13 12 11 10 9 8 8 7 7 7 6 6 6 7 7 7 7 7 7 7 7 7 8 9 10 11 12 10 9 9 9 9 9 10
11 18 23 23 21 20 18 17 15 13 12 11 10 9 8 7 7 6 6 5 4 4 5 5 5 5 5 5 6 6 6 8 8 6 7 10 8 6 7 7 7 7 7
11 16 22 22 21 19 18 17 16 14 12 11 10 9 8 8 7 6 5 4 3 2 2 2 3 3 3 3 4 4 5 7 8 6 4 7 5 4 5 5 5 5 5
11 14 19 20 19 19 18 17 16 14 12 11 10 9 8 8 7 7 6 5 4 3 2 1 0 1 2 2 2 3 4 6 9 8 3 3 2 3 3 3 4 4 4
8 10 16 18 18 17 17 17 16 15 13 12 11 10 9 8 8 7 7 7 6 4 4 4 3 3 4 4 4 4 5 7 11 9 5 2 2 4 5 5 5 5 5
6 8 11 15 17 17 17 16 16 15 14 13 12 11 10 9 9 10 10 9 7 7 6 7 7 7 7 8 8 8 8 10 12 8 6 5 6 8 8 8 8 8 8
8 8 8 10 14 16 15 15 15 14 14 14 12 13 12 11 10 9 10 10 9 9 9 10 10 10 10 12 12 11 11 13 14 10 10 11 11 12 12 12 11 11 11
11 9 7 7 12 13 11 12 12 12 13 14 14 14 14 12 9 7 9 10 11 11 12 12 12 12 14 14 10 11 14 13 10 10 10 12 13 14 15 15 15 15 15
10 10 8 7 7 9 11 9 10 10 10 10 13 12 12 9 7 7 7 9 11 12 13 12 11 13 14 14 12 12 13 13 13 13 14 15 16 17 18 18 19 19 19
8 9 8 8 7 7 7 6 7 8 10 11 12 12 10 8 6 7 8 8 9 9 9 9 9 10 10 11 12 11 11 13 14 16 16 18 19 20 21 22 22 22 22
8 9 7 7 7 7 4 4 5 6 8 9 10 11 11 9 8 7 7 8 9 9 9 8 8 8 7 8 8 10 12 14 16 17 18 20 22 23 24 24 25 25 25
8 8 7 6 6 6 6 5 5 6 7 7 7 10 10 10 9 8 6 5 8 10 10 9 9 8 6 6 6 8 11 13 15 16 18 19 20 23 25 26 27 27 28
9 8 7 5 5 5 4 4 4 4 3 4 4 5 7 9 9 7 4 5 8 8 7 4 4 5 5 6 6 6 7 10 13 16 18 19 20 20 23 27 28 29 29
9 9 8 6 4 5 4 4 3 2 2 1 1 2 3 5 6 6 4 5 7 6 5 4 5 5 6 6 7 7 6 7 8 13 13 17 20 21 22 25 28 29 30
9 9 8 7 6 6 4 3 3 3 2 1 0 2 4 5 6 6 5 6 7 4 4 4 6 6 6 6 8 9 8 8 7 9 11 16 18 21 21 22 23 25 29
9 9 8 7 6 5 4 3 2 1 0 0 1 3 4 5 6 5 4 5 5 5 6 6 5 6 6 5 5 7 7 10 13 13 10 10 12 18 19 20 20 21 22
9 8 8 7 7 6 4 3 2 1 0 0 1 2 3 4 5 5 4 3 4 5 6 6 6 5 5 4 4 4 5 5 7 10 8 10 11 10 11 16 18 19 20
8 8 7 8 7 6 5 3 2 1 1 1 1 1 2 4 4 4 4 4 4 4 5 6 6 7 6 5 6 5 5 5 5 5 7 6 6 6 7 9 14 18 20
7 7 8 7 7 5 4 4 2 2 1 1 1 1 2 3 3 3 4 4 4 4 6 6 6 6 6 6 5 6 8 7 6 6 4 5 7 8 8 8 8 14 18
7 6 6 7 6 5 5 4 4 4 3 3 3 3 4 3 2 3 4 4 4 4 6 7 6 6 5 6 6 6 7 7 9 10 11 7 7 8 10 11 9 10 17
6 5 5 6 6 5 4 4 4 4 4 4 4 4 4 4 3 3 3 4 5 4 6 7 7 8 7 8 7 7 7 7 7 9 12 11 10 8 9 8 8 7 12
Wind_Direction
138 153 161 156 152 149 145 140 133 124 119 114 105 99 94 88 84 79 76 72 67 64 62 60 57 57 57 57 58 59 59 58 58 57 57 57 60 60 57 56 56 50 53
142 153 161 158 156 154 151 146 140 134 127 118 110 102 97 92 88 84 79 74 69 66 63 61 61 59 58 56 58 60 61 60 58 56 57 52 55 58 58 57 59 57 57
139 151 162 160 159 157 154 150 146 142 136 128 119 112 106 99 94 89 82 77 72 68 65 63 61 60 59 56 56 58 59 57 50 50 59 49 48 55 57 56 57 58 58
142 151 163 163 162 160 158 155 152 148 143 137 127 119 114 108 101 95 87 80 75 70 67 65 63 61 59 56 56 57 56 50 38 50 54 48 44 53 54 54 53 54 55
142 153 163 164 165 164 162 161 158 154 151 146 138 130 124 118 110 102 95 87 80 74 68 65 62 61 59 56 54 53 48 33 14 46 55 55 43 49 53 51 50 50 51
144 153 159 166 168 168 167 165 163 161 159 155 150 143 136 129 122 113 106 98 89 81 73 66 61 58 56 53 51 46 31 12 10 44 49 52 40 41 48 49 47 46 45
148 151 159 168 170 171 171 169 167 167 166 162 159 154 149 142 135 128 122 114 104 91 80 70 61 56 51 48 46 35 14 357 5 34 48 58 40 34 39 40 39 38 39
143 146 157 170 173 174 175 173 172 173 172 171 169 166 162 158 152 150 146 142 135 120 97 76 61 47 37 32 32 20 356 342 338 349 52 72 40 17 23 23 21 22 25
138 143 152 169 174 177 178 177 177 178 178 179 178 177 175 174 172 172 171 174 178 180 186 201 299 334 339 338 335 332 323 315 311 315 332 77 39 343 339 342 342 344 348
135 144 152 167 174 177 180 180 181 182 183 186 187 184 183 186 191 192 193 196 202 211 225 239 254 266 274 280 279 279 283 289 285 277 267 207 232 284 292 289 292 296 297
147 153 153 165 172 176 178 182 182 186 189 189 189 186 184 194 204 204 204 203 211 224 237 246 252 259 264 264 260 254 260 263 265 257 257 242 250 264 271 275 274 274 275
171 172 163 162 168 172 178 176 182 187 190 192 194 190 193 205 213 206 196 200 215 231 243 251 254 258 260 254 247 240 242 249 252 247 239 240 249 257 261 266 268 268 267
169 167 165 158 160 165 168 168 177 184 186 194 201 196 196 204 204 191 184 197 213 226 236 244 242 242 242 241 226 217 231 245 253 257 251 246 250 255 259 261 263 264 263
147 154 158 150 149 158 161 169 172 178 182 189 203 204 192 191 191 196 206 207 212 217 222 228 224 237 238 239 233 230 237 241 242 245 248 250 252 255 258 259 260 260 260
132 144 154 151 152 153 154 167 174 178 181 191 198 206 199 186 189 202 217 227 231 230 224 224 232 245 248 246 244 241 244 247 247 246 245 248 252 254 257 259 259 258 258
130 136 144 152 151 148 152 163 177 188 186 191 192 198 207 204 201 206 218 227 233 240 245 242 244 251 253 252 249 248 248 249 250 249 248 248 250 253 256 258 259 258 257
120 122 130 143 146 150 160 175 184 191 186 191 194 200 210 214 217 216 220 227 234 240 244 247 254 262 264 263 259 260 260 256 253 252 252 249 247 250 254 257 259 260 259
102 103 102 105 127 140 146 162 178 188 182 179 193 206 217 224 230 231 230 235 243 247 245 241 243 257 261 260 259 257 256 256 254 252 252 250 247 246 249 255 258 260 260
94 97 100 102 106 113 116 117 106 87 82 101 163 222 237 243 246 247 246 250 257 255 249 245 247 245 258 265 267 265 260 258 258 259 254 251 248 245 244 251 257 260 262
88 96 101 99 96 97 91 95 89 74 48 47 14 278 273 268 266 262 257 261 265 260 255 248 250 251 252 259 272 273 267 263 260 258 257 256 253 250 247 247 250 255 261
84 91 96 98 93 91 84 87 93 96 47 285 255 271 274 269 266 260 257 263 261 256 256 254 253 259 263 262 281 287 273 257 255 255 251 249 248 247 246 245 246 246 253
92 93 95 94 90 85 85 88 89 94 84 170 240 257 276 275 266 255 247 250 252 255 261 261 256 260 264 249 250 292 302 298 262 254 251 245 244 241 240 244 246 247 246
87 90 94 90 88 87 88 87 69 51 343 9 321 291 272 270 269 261 255 257 262 256 257 256 250 249 256 251 219 224 262 274 308 290 280 274 266 257 248 247 247 248 248
95 93 95 94 92 87 82 75 67 56 30 357 354 296 287 273 264 270 273 273 271 267 266 263 257 248 247 256 251 232 233 238 268 292 275 277 286 279 272 266 257 251 248
105 100 99 96 90 81 76 68 50 40 13 359 352 343 335 317 290 272 269 277 275 268 268 268 271 264 252 250 248 248 253 253 246 262 278 270 263 257 259 259 256 253 251
118 110 108 103 98 89 78 69 69 47 10 356 349 348 334 321 312 301 287 279 275 269 267 267 264 262 257 256 254 248 247 248 250 254 270 274 273 264 259 262 263 259 259
Height
1542 1542 1544 1545 1546 1548 1549 1550 1551 1552 1553 1554 1555 1555 1555 1555 1555 1554 1554 1554 1554 1554 1554 1554 1554 1554 1554 1553 1553 1553 1553 1553 1553 1553 1553 1553 1553 1552 1552 1552 1552 1552 1552
1541 1542 1543 1545 1546 1548 1549 1551 1552 1553 1554 1555 1555 1556 1556 1556 1556 1556 1555 1555 1555 1555 1554 1554 1554 1554 1554 1554 1554 1554 1554 1554 1554 1554 1554 1553 1553 1553 1553 1552 1552 1552 1552
1541 1542 1543 1545 1546 1548 1549 1551 1552 1553 1554 1555 1556 1556 1556 1556 1556 1556 1556 1556 1556 1555 1555 1555 1555 1554 1554 1554 1554 1554 1554 1555 1555 1555 1554 1554 1554 1554 1554 1553 1553 1553 1552
1541 1541 1543 1544 1546 1548 1549 1551 1552 1553 1555 1556 1556 1557 1557 1557 1557 1557 1557 1557 1556 1556 1556 1556 1555 1555 1555 1555 1555 1555 1555 1555 1556 1555 1555 1554 1554 1554 1554 1554 1553 1553 1553
1541 1541 1543 1544 1546 1548 1549 1551 1552 1554 1555 1556 1556 1557 1557 1558 1558 1558 1557 1557 1557 1557 1556 1556 1556 1556 1555 1555 1555 1556 1556 1556 1556 1556 1555 1555 1555 1555 1554 1554 1553 1553 1553
1540 1541 1542 1544 1546 1547 1549 1551 1552 1553 1555 1556 1557 1557 1558 1558 1558 1558 1558 1558 1558 1557 1557 1557 1557 1556 1556 1556 1556 1556 1556 1556 1556 1556 1556 1555 1555 1555 1554 1554 1554 1553 1553
1540 1541 1542 1544 1545 1547 1549 1550 1552 1553 1555 1556 1557 1558 1558 1558 1558 1558 1558 1558 1558 1558 1558 1558 1557 1557 1557 1556 1556 1557 1557 1556 1556 1556 1556 1555 1555 1555 1554 1554 1553 1553 1553
1540 1540 1541 1543 1544 1546 1548 1550 1552 1553 1555 1556 1557 1558 1558 1558 1559 1559 1558 1558 1558 1558 1558 1558 1558 1557 1557 1557 1557 1557 1557 1557 1556 1556 1555 1555 1555 1555 1554 1554 1553 1553 1552
1539 1539 1540 1542 1543 1545 1547 1549 1551 1553 1554 1555 1556 1557 1558 1559 1559 1559 1559 1558 1558 1558 1558 1558 1558 1558 1557 1557 1557 1557 1557 1556 1556 1556 1555 1555 1555 1554 1554 1553 1553 1552 1552
1538 1538 1538 1540 1542 1544 1546 1548 1550 1552 1554 1555 1556 1557 1557 1558 1558 1559 1558 1558 1558 1558 1558 1558 1558 1557 1557 1557 1556 1556 1556 1556 1556 1555 1555 1554 1554 1554 1553 1553 1552 1552 1551
1536 1537 1537 1539 1541 1543 1545 1547 1549 1551 1553 1554 1555 1556 1557 1557 1558 1558 1558 1558 1558 1558 1557 1557 1557 1557 1556 1556 1556 1555 1555 1555 1554 1554 1554 1553 1553 1553 1552 1552 1551 1550 1550
1533 1535 1537 1538 1539 1542 1544 1546 1548 1549 1551 1552 1554 1555 1555 1556 1557 1557 1557 1557 1557 1557 1556 1556 1556 1555 1555 1555 1554 1554 1554 1553 1552 1552 1552 1552 1551 1551 1550 1550 1549 1549 1548
1531 1533 1535 1538 1539 1541 1543 1544 1546 1548 1549 1551 1552 1553 1554 1555 1556 1556 1556 1556 1556 1555 1555 1554 1554 1554 1553 1552 1552 1551 1551 1551 1550 1550 1549 1549 1549 1548 1548 1547 1547 1546 1546
1529 1531 1533 1536 1538 1540 1541 1543 1545 1546 1548 1549 1551 1552 1553 1553 1554 1554 1554 1554 1554 1553 1553 1552 1552 1551 1551 1550 1550 1549 1548 1548 1547 1547 1546 1546 1546 1545 1545 1544 1543 1543 1542
1528 1529 1532 1534 1536 1538 1540 1542 1544 1545 1546 1548 1549 1550 1551 1551 1552 1552 1552 1552 1552 1552 1551 1551 1550 1549 1549 1548 1547 1546 1545 1544 1543 1543 1542 1542 1541 1541 1541 1540 1540 1539 1539
1526 1528 1530 1532 1534 1536 1538 1540 1542 1544 1545 1546 1547 1548 1549 1549 1549 1550 1549 1549 1549 1549 1549 1548 1547 1547 1546 1545 1544 1542 1541 1540 1539 1538 1537 1536 1536 1535 1535 1535 1535 1534 1534
1525 1527 1529 1531 1533 1535 1536 1538 1540 1542 1543 1544 1545 1546 1546 1547 1547 1547 1547 1547 1546 1546 1545 1545 1544 1543 1542 1541 1539 1538 1536 1535 1533 1532 1531 1530 1529 1529 1528 1528 1528 1528 1527
1524 1526 1527 1530 1532 1534 1535 1537 1539 1540 1541 1542 1543 1543 1544 1544 1544 1544 1543 1543 1543 1542 1542 1541 1540 1538 1537 1535 1534 1532 1531 1529 1527 1526 1525 1524 1523 1522 1521 1521 1520 1520 1520
1524 1525 1526 1529 1531 1532 1534 1536 1537 1538 1539 1540 1540 1540 1540 1541 1540 1540 1540 1539 1539 1538 1537 1536 1535 1534 1532 1530 1528 1526 1524 1523 1521 1520 1518 1517 1515 1514 1513 1513 1512 1512 1512
1524 1525 1526 1528 1530 1531 1533 1534 1535 1536 1537 1537 1537 1537 1537 1537 1537 1536 1535 1535 1534 1533 1532 1531 1530 1529 1527 1525 1522 1519 1517 1516 1514 1512 1511 1509 1508 1507 1506 1505 1504 1504 1503
1525 1526 1527 1528 1530 1531 1532 1533 1534 1534 1535 1535 1534 1534 1534 1533 1533 1532 1531 1531 1530 1529 1528 1527 1526 1524 1522 1521 1518 1513 1509 1508 1506 1504 1503 1501 1500 1500 1499 1498 1497 1496 1495
1526 1527 1528 1529 1530 1531 1532 1532 1533 1533 1533 1533 1533 1532 1531 1530 1529 1529 1528 1527 1526 1525 1524 1523 1522 1519 1518 1517 1514 1510 1503 1499 1497 1497 1496 1495 1494 1493 1492 1492 1491 1489 1488
1526 1528 1529 1530 1530 1531 1532 1532 1532 1532 1532 1532 1531 1530 1529 1528 1527 1526 1525 1524 1522 1521 1520 1519 1517 1515 1513 1512 1511 1509 1504 1495 1492 1489 1490 1490 1489 1488 1487 1485 1483 1482 1481
1527 1528 1529 1530 1531 1531 1531 1531 1531 1531 1531 1530 1529 1528 1527 1526 1525 1523 1522 1521 1519 1518 1516 1514 1513 1511 1509 1507 1506 1504 1501 1496 1492 1482 1479 1481 1481 1480 1479 1478 1476 1474 1473
1527 1528 1529 1530 1530 1531 1531 1530 1530 1530 1529 1528 1527 1526 1525 1524 1522 1521 1519 1517 1516 1514 1512 1510 1508 1506 1504 1502 1500 1497 1495 1492 1488 1483 1473 1471 1470 1470 1470 1469 1468 1466 1465
1527 1528 1529 1529 1530 1530 1530 1529 1528 1528 1527 1526 1524 1523 1522 1521 1519 1517 1515 1514 1511 1509 1507 1505 1503 1501 1498 1496 1493 1491 1488 1485 1482 1478 1470 1464 1461 1460 1461 1460 1460 1458 1457